Location: Vancouver
(49.2500°N, 123.1330°W)
Time: 13:25:29
(UTC-07:00)

S-56A Canister/Altair - Visible Passes

Search period start: 20 April 2018 00:00
Search period end: 30 April 2018 00:00
Orbit: 632 x 2501 km, 38.9° (Epoch: 19 April)

Date Brightness Start Highest point End Pass type
(mag) Time Alt. Az. Time Alt. Az. Time Alt. Az.
20 Apr 11.3 04:31:04 10° S 04:40:44 22° SE 04:50:40 10° E visible
21 Apr 11.3 03:59:07 10° S 04:07:46 19° SE 04:16:49 10° E visible
22 Apr 11.2 03:27:28 10° SSE 03:34:52 16° SE 03:42:40 10° E visible
22 Apr 10.8 05:25:56 10° SSW 05:38:29 38° SSE 05:51:20 10° E visible
23 Apr 11.2 02:56:19 10° SSE 03:02:01 14° SE 03:08:02 10° ESE visible
23 Apr 10.8 04:53:19 10° SSW 05:05:18 36° SSE 05:18:00 10° E visible
24 Apr 11.3 02:26:23 10° SE 02:29:15 11° ESE 02:32:13 10° ESE visible
24 Apr 10.8 04:21:15 11° SSW 04:32:11 33° SE 04:44:33 10° E visible
25 Apr 10.8 03:50:14 15° S 03:59:07 30° SE 04:10:59 10° E visible
26 Apr 10.7 03:19:09 17° S 03:26:07 27° SE 03:37:17 10° E visible
26 Apr 10.5 05:17:32 10° SW 05:30:21 48° SSE 05:44:17 10° E visible
27 Apr 10.7 02:48:02 18° SSE 02:53:12 23° SE 03:03:25 10° E visible
27 Apr 10.4 04:45:26 12° SW 04:57:05 46° SSE 05:10:57 10° E visible
28 Apr 10.7 02:16:52 18° SSE 02:20:22 20° SE 02:29:23 10° E visible
28 Apr 10.4 04:14:16 17° SSW 04:23:53 43° SSE 04:37:31 10° E visible
29 Apr 10.8 01:45:39 16° SE 01:47:37 17° SE 01:55:05 10° E visible
29 Apr 10.4 03:43:03 21° SSW 03:50:46 40° SSE 04:04:00 10° E visible
